Location: Danville Conservation Area
(38.8674°N, 91.5143°W)
Time: 08:34:13
(UTC-06:00)

Envisat - Visible Passes

Search period start: 28 November 2021 00:00
Search period end: 08 December 2021 00:00
Orbit: 764 x 766 km, 98.2° (Epoch: 28 November)

Date Brightness Start Highest point End Pass type
(mag) Time Alt. Az. Time Alt. Az. Time Alt. Az.
28 Nov 3.2 04:59:41 10° NNE 05:04:47 72° ESE 05:09:50 10° S visible
28 Nov 6.6 17:57:10 10° W 17:57:25 10° W 17:57:40 10° W visible
29 Nov 4.7 04:23:19 10° NE 04:27:48 31° E 04:32:16 10° SSE visible
29 Nov 3.8 06:02:23 10° N 06:06:42 29° WNW 06:11:01 10° SW visible
29 Nov 5.6 17:16:06 10° SSW 17:20:11 24° W 17:24:18 10° NW visible
30 Nov 5.9 03:48:11 10° ENE 03:50:37 13° E 03:53:03 10° ESE visible
30 Nov 2.9 05:25:01 10° N 05:30:03 65° WNW 05:35:04 10° SSW visible
01 Dec 3.6 04:48:12 10° NNE 04:53:13 55° E 04:58:10 10° S visible
01 Dec 4.4 06:28:31 10° NNW 06:31:45 17° WNW 06:34:57 10° WSW visible
01 Dec 6.1 17:43:15 10° WSW 17:45:44 14° W 17:48:12 10° WNW visible
02 Dec 5.1 04:12:05 10° NE 04:16:11 24° E 04:20:15 10° SSE visible
02 Dec 3.5 05:50:36 10° N 05:55:14 36° WNW 05:59:51 10° SW visible
02 Dec 5.2 17:04:05 10° SSW 17:08:33 31° W 17:13:03 10° NW visible
03 Dec 2.9 05:13:26 10° N 05:18:32 83° WNW 05:23:35 10° SSW visible
04 Dec 4.1 04:36:47 10° NNE 04:41:37 43° E 04:46:25 10° S visible
04 Dec 4.1 06:16:32 10° NNW 06:20:19 22° WNW 06:24:06 10° WSW visible
04 Dec 5.9 17:30:42 10° SW 17:34:03 18° W 17:37:26 10° NW visible
05 Dec 5.5 04:00:58 10° NE 04:04:31 19° E 04:08:03 10° SE visible
05 Dec 3.2 05:38:54 10° N 05:43:45 46° WNW 05:48:34 10° SW visible
06 Dec 3.1 05:01:52 10° NNE 05:06:58 78° ESE 05:12:03 10° S visible
06 Dec 4.6 06:43:12 10° NW 06:45:18 13° WNW 06:47:24 10° W visible
07 Dec 4.6 04:25:26 10° NNE 04:30:01 33° E 04:34:34 10° SSE visible
07 Dec 3.8 06:04:39 10° NNW 06:08:52 27° WNW 06:13:05 10° SW visible
07 Dec 5.7 17:18:27 10° SW 17:22:24 23° W 17:26:22 10° NW visible
